TITAN 3C TRANSTAGE DEB, 43456

Orbit data source: Space-Track

TITAN 3C TRANSTAGE DEB, 43456 is space debris in GEO originally from a launch on Sun, 09 Feb 1969 UTC launched from the Air Force Eastern Test Range (AFETR). Debris objects in space refer to the collection of defunct objects orbiting the Earth. Examples of debris include non-operational satellites, rocket bodies, and fragments generated from explosions, collisions, or faulty payload assembly.

Not visible in the next 10 days
Identifier
43456, 1969-013P
Orbit
GEO
Last TLE update
19 hours ago
Origin
Manufacturer
Martin Marietta
Mission
Spacecraft
Bus & Motor
Unknown
Mass
Unknown
Launch date (UTC)
1969-02-09 (56 years ago)
Launch vehicle
Unknown
Launch site
Air Force Eastern Test Range (AFETR)
Object type
Payload
Rocket body
Debris
Shape & HBR
Unknown
Radar Cross Section
RCS unknown

Expand to show TLE details & history

TLE from 19 hours ago
0 TITAN 3C TRANSTAGE DEB
1 43456U 69013P   25182.36967379 -.00000005  00000-0  00000-0 0  9995
2 43456   1.2867  35.9250 0971016  60.9016 308.3411  1.02763057  3125
Epoch: 2025-07-01T08:52Z
TLE epoch observation values (Epoch: 2025-07-01T08:52:19.815Z)
Latitude
-0°
Longitude
-17.00235°
Altitude
32,858.876 km
Speed
3.272 km/s
True Right ascension
02h 22m 59s
True Declination
0° 00' 00"
Sunlit
Object was in daylight at epoch
Visualization orbit readout
Latitude
-1.14262°
Longitude
-78.06495°
Altitude
36,957.247 km
Speed
2.964 km/s
Apparent Right ascension
22h 44m 11s
Apparent Declination
-6° 23' 42"
Sunlit
Object is in daylight
Visualization observer readout
Local Sidereal Time
15:58:47
Azimuth
87.645° E
Elevation
-12.796°
Doppler factor
1
Orbital elements
Apogee altitude
39,131.379 km
Perigee altitude
31,075.522 km
Semi-major axis
41,481.587 km
Eccentricity
0.0971
Inclination
1.2867°
RAAN
35.925°
Arg. of periapsis
60.9016°
True anomaly
Unknown
Mean anomaly
308.3411°
Eccentric anomaly
Unknown
Mean motion
0.2569 °/min
Orbital period
1,401.34 mins
BSTAR
0
Loading historical data...
43456 neighbors
Loading maneuver chart data...
Loading SW <> Apogee altitude chart data...

TITAN 3C TRANSTAGE DEB Visibility

Observer location: undefined°, undefined°

TITAN 3C TRANSTAGE DEB is likely not visible in the next few days
Span
Click to sort rows by Start time (UTC) header in descending order
Start Az.
Max El. time (UTC)
Max El. Az.
Max El.
End time (UTC)
End Az.
|